This is the latest recevied weather packets stored in our database for station/object N0HOT. If no packets are shown the sender has not sent any weather packets the latest 1 day(s).
| Time | Temp. | Humidity | Pressure | Rain* | Wind** | Luminosity | Snow |
|---|---|---|---|---|---|---|---|
| 1778099280 | 7.22° C | 39% | 1017.3 hPa | 0 mm | - | 196 W/m² | - |
| 1778096854 | 7.22° C | 40% | 1017.3 hPa | 0 mm | - | 158 W/m² | - |
| 1778095945 | 7.22° C | 40% | 1017 hPa | 0 mm | - | 147 W/m² | - |
| 1778095035 | 7.22° C | 40% | 1017.3 hPa | 0 mm | - | 155 W/m² | - |
| 1778094125 | 7.22° C | 40% | 1017.3 hPa | 0 mm | - | 151 W/m² | - |
| 1778092610 | 7.22° C | 39% | 1017 hPa | 0 mm | - | 187 W/m² | - |
| 1778091700 | 7.22° C | 39% | 1017 hPa | 0 mm | - | 215 W/m² | - |
| 1778091095 | 7.22° C | 38% | 1017 hPa | 0 mm | - | 226 W/m² | - |
| 1778090792 | 7.22° C | 39% | 1016.7 hPa | 0 mm | - | 177 W/m² | - |
| 1778089580 | 7.22° C | 39% | 1017 hPa | 0 mm | - | 160 W/m² | - |
| 1778089276 | 7.22° C | 39% | 1017.3 hPa | 0 mm | - | 191 W/m² | - |
| 1778088974 | 7.22° C | 39% | 1016.7 hPa | 0 mm | - | 175 W/m² | - |
| 1778088368 | 7.78° C | 38% | 1016.7 hPa | 0 mm | - | 154 W/m² | - |
| 1778087459 | 7.78° C | 37% | 1017.3 hPa | 0 mm | - | 182 W/m² | - |
| 1778086552 | 7.22° C | 38% | 1017 hPa | 0 mm | - | 201 W/m² | - |
| 1778085945 | 7.22° C | 37% | 1017 hPa | 0 mm | - | 385 W/m² | - |
| 1778085338 | 7.22° C | 38% | 1016.7 hPa | 0 mm | - | 202 W/m² | - |
| 1778085034 | 7.22° C | 39% | 1017 hPa | 0 mm | - | 177 W/m² | - |
| 1778083822 | 6.67° C | 39% | 1017.3 hPa | 0 mm | - | 236 W/m² | - |
| 1778083520 | 6.67° C | 40% | 1017.3 hPa | 0 mm | - | 197 W/m² | - |
| 1778080898 | 6.67° C | 41% | 1016.7 hPa | 0 mm | - | 229 W/m² | - |
| 1778080293 | 6.11° C | 40% | 1017 hPa | 0 mm | - | 226 W/m² | - |
| 1778079990 | 6.11° C | 40% | 1017.3 hPa | 0 mm | - | 449 W/m² | - |
| 1778079687 | 6.11° C | 43% | 1017.8 hPa | 0 mm | - | 754 W/m² | - |
| 1778079384 | 6.11° C | 43% | 1017.3 hPa | 0 mm | - | 150 W/m² | - |
* Rain latest hour (hover to see other rain measurements)
** Current wind speed in m/s (hover to see current wind gust speed)